Location: Bühlhof
(48.7849°N, 8.6361°E)
Time: 20:35:05
(UTC+00:00)

NOSS 3-1 (C) - Pass Details

Date: 19 January 2026
Orbit: 618 x 1583 km, 63.4° (Epoch: 10 January)

Event Time Altitude Azimuth Distance (km) Brightness Sun altitude
Rises 18:13:46 0° 317° (NW) 3,696 7.0 -21.1°
Reaches altitude 10° 18:16:07 10° 318° (NW) 2,869 6.4 -21.5°
Maximum altitude 18:23:06 90° 42° (NE) 1,249 3.9 -22.7°
Enters shadow 18:30:21 16° 141° (SE) 3,049 5.7 -23.9°
